Météo par heure à Kyzlar-Birgan

Ce jour, 24 Juillet, Samedi

Heure Température Précipitation Vent Pression Humidité
00:00 +16°C° 1 mm 1 m/s 701 mmHg 98%
01:00 +15°C° 1 mm 1 m/s 701 mmHg 99%
02:00 +15°C° 0.3 mm 1 m/s 701 mmHg 99%
03:00 +15°C° 0.3 mm 1 m/s 701 mmHg 99%
04:00 +14°C° 0.3 mm 2 m/s 701 mmHg 99%
05:00 +15°C° 0 mm 2 m/s 701 mmHg 97%
06:00 +15°C° 0 mm 2 m/s 702 mmHg 96%
07:00 +15°C° 0 mm 2 m/s 702 mmHg 94%
08:00 +17°C° 0 mm 2 m/s 702 mmHg 82%
09:00 +18°C° 0 mm 2 m/s 703 mmHg 70%
10:00 +20°C° 0 mm 2 m/s 703 mmHg 58%
11:00 +21°C° 0 mm 2 m/s 703 mmHg 52%
12:00 +22°C° 0 mm 3 m/s 703 mmHg 45%
13:00 +25°C° 0 mm 3 m/s 704 mmHg 39%
14:00 +25°C° 0 mm 3 m/s 704 mmHg 36%
15:00 +25°C° 0 mm 3 m/s 704 mmHg 34%
16:00 +26°C° 0 mm 3 m/s 704 mmHg 32%
17:00 +24°C° 0 mm 3 m/s 704 mmHg 39%
18:00 +21°C° 0 mm 2 m/s 705 mmHg 46%
19:00 +20°C° 0 mm 2 m/s 705 mmHg 53%
20:00 +18°C° 0 mm 2 m/s 705 mmHg 57%
21:00 +18°C° 0 mm 1 m/s 705 mmHg 62%
22:00 +16°C° 0 mm 1 m/s 705 mmHg 66%
23:00 +15°C° 0 mm 1 m/s 705 mmHg 67%

Demain, 25 Juillet, Dimanche

Heure Température Précipitation Vent Pression Humidité
00:00 +14°C° 0 mm 0 m/s 706 mmHg 69%
01:00 +13°C° 0 mm 0 m/s 706 mmHg 70%
02:00 +13°C° 0 mm 0 m/s 706 mmHg 71%
03:00 +12°C° 0 mm 0 m/s 706 mmHg 73%
04:00 +12°C° 0 mm 0 m/s 706 mmHg 74%
05:00 +14°C° 0 mm 1 m/s 707 mmHg 70%
06:00 +15°C° 0 mm 1 m/s 708 mmHg 66%
07:00 +17°C° 0 mm 2 m/s 708 mmHg 62%
08:00 +18°C° 0 mm 2 m/s 708 mmHg 57%
09:00 +19°C° 0 mm 3 m/s 709 mmHg 51%
10:00 +20°C° 0 mm 4 m/s 709 mmHg 46%
11:00 +21°C° 0 mm 4 m/s 710 mmHg 42%
12:00 +22°C° 0 mm 4 m/s 710 mmHg 39%
13:00 +22°C° 0 mm 4 m/s 710 mmHg 36%
14:00 +22°C° 0 mm 4 m/s 710 mmHg 34%
15:00 +22°C° 0 mm 4 m/s 711 mmHg 33%
16:00 +22°C° 0 mm 4 m/s 711 mmHg 31%
17:00 +20°C° 0 mm 3 m/s 711 mmHg 37%
18:00 +19°C° 0 mm 3 m/s 711 mmHg 43%
19:00 +18°C° 0 mm 2 m/s 711 mmHg 49%
20:00 +15°C° 0 mm 2 m/s 711 mmHg 55%
21:00 +13°C° 0 mm 1 m/s 712 mmHg 62%
22:00 +11°C° 0 mm 1 m/s 712 mmHg 68%
23:00 +10°C° 0 mm 1 m/s 712 mmHg 69%

Après-demain, 26 Juillet, Lundi

Heure Température Précipitation Vent Pression Humidité
00:00 +10°C° 0 mm 1 m/s 712 mmHg 70%
01:00 +9°C° 0 mm 1 m/s 713 mmHg 70%
02:00 +9°C° 0 mm 1 m/s 713 mmHg 71%
03:00 +8°C° 0 mm 1 m/s 713 mmHg 72%
04:00 +8°C° 0 mm 1 m/s 713 mmHg 73%
05:00 +10°C° 0 mm 1 m/s 713 mmHg 66%
06:00 +12°C° 0 mm 1 m/s 714 mmHg 59%
07:00 +14°C° 0 mm 1 m/s 714 mmHg 53%
08:00 +15°C° 0 mm 1 m/s 714 mmHg 47%
09:00 +17°C° 0 mm 2 m/s 714 mmHg 42%
10:00 +18°C° 0 mm 2 m/s 715 mmHg 36%
11:00 +19°C° 0 mm 3 m/s 715 mmHg 34%
12:00 +20°C° 0 mm 3 m/s 715 mmHg 31%
13:00 +20°C° 0 mm 3 m/s 715 mmHg 29%
14:00 +21°C° 0 mm 3 m/s 714 mmHg 29%
15:00 +21°C° 0 mm 3 m/s 714 mmHg 28%
16:00 +21°C° 0 mm 3 m/s 714 mmHg 28%
17:00 +19°C° 0 mm 2 m/s 714 mmHg 35%
18:00 +18°C° 0 mm 2 m/s 714 mmHg 43%
19:00 +18°C° 0 mm 1 m/s 713 mmHg 51%
20:00 +15°C° 0 mm 1 m/s 713 mmHg 55%
21:00 +13°C° 0 mm 1 m/s 713 mmHg 60%
22:00 +11°C° 0 mm 1 m/s 713 mmHg 65%
23:00 +9°C° 0 mm 0 m/s 713 mmHg 66%

27 Juillet, Mardi

Heure Température Précipitation Vent Pression Humidité
00:00 +9°C° 0 mm 0 m/s 713 mmHg 67%
01:00 +8°C° 0 mm 0 m/s 713 mmHg 68%
02:00 +8°C° 0 mm 0 m/s 713 mmHg 68%
03:00 +8°C° 0 mm 0 m/s 713 mmHg 68%
04:00 +8°C° 0 mm 0 m/s 713 mmHg 67%
05:00 +10°C° 0 mm 0 m/s 713 mmHg 63%
06:00 +11°C° 0 mm 0 m/s 713 mmHg 58%
07:00 +13°C° 0 mm 0 m/s 713 mmHg 53%
08:00 +16°C° 0 mm 1 m/s 713 mmHg 49%
09:00 +19°C° 0 mm 1 m/s 713 mmHg 45%
10:00 +19°C° 0 mm 2 m/s 713 mmHg 41%
11:00 +19°C° 0 mm 2 m/s 713 mmHg 43%
12:00 +19°C° 0 mm 2 m/s 713 mmHg 45%
13:00 +19°C° 0 mm 2 m/s 712 mmHg 47%
14:00 +19°C° 0 mm 2 m/s 712 mmHg 46%
15:00 +19°C° 0 mm 2 m/s 712 mmHg 45%
16:00 +20°C° 0 mm 3 m/s 711 mmHg 44%
17:00 +19°C° 0 mm 2 m/s 711 mmHg 48%
18:00 +18°C° 0 mm 2 m/s 711 mmHg 52%
19:00 +18°C° 0 mm 1 m/s 711 mmHg 56%
20:00 +16°C° 0 mm 1 m/s 710 mmHg 60%
21:00 +15°C° 0 mm 1 m/s 710 mmHg 63%
22:00 +12°C° 0 mm 0 m/s 710 mmHg 67%
23:00 +11°C° 0 mm 0 m/s 710 mmHg 71%

28 Juillet, Mercredi

Heure Température Précipitation Vent Pression Humidité
00:00 +11°C° 0 mm 0 m/s 710 mmHg 75%
01:00 +10°C° 0 mm 0 m/s 710 mmHg 79%
02:00 +9°C° 0 mm 0 m/s 710 mmHg 82%
03:00 +9°C° 0 mm 0 m/s 710 mmHg 85%
04:00 +8°C° 0 mm 0 m/s 710 mmHg 88%
05:00 +11°C° 0 mm 1 m/s 710 mmHg 79%
06:00 +13°C° 0 mm 1 m/s 711 mmHg 70%
07:00 +15°C° 0 mm 1 m/s 711 mmHg 61%
08:00 +18°C° 0 mm 1 m/s 711 mmHg 54%
09:00 +18°C° 0 mm 2 m/s 711 mmHg 48%
10:00 +20°C° 0 mm 3 m/s 711 mmHg 41%
11:00 +21°C° 0 mm 3 m/s 711 mmHg 38%
12:00 +22°C° 0 mm 3 m/s 711 mmHg 35%
13:00 +24°C° 0 mm 3 m/s 710 mmHg 32%
14:00 +24°C° 0 mm 3 m/s 710 mmHg 31%
15:00 +24°C° 0 mm 3 m/s 710 mmHg 31%
16:00 +24°C° 0 mm 3 m/s 710 mmHg 30%
17:00 +23°C° 0 mm 2 m/s 710 mmHg 38%
18:00 +20°C° 0 mm 2 m/s 709 mmHg 46%
19:00 +20°C° 0 mm 1 m/s 709 mmHg 55%
20:00 +18°C° 0 mm 1 m/s 709 mmHg 58%
21:00 +15°C° 0 mm 1 m/s 709 mmHg 62%
22:00 +12°C° 0 mm 0 m/s 709 mmHg 66%
23:00 +12°C° 0 mm 0 m/s 709 mmHg 66%

29 Juillet, Jeudi

Heure Température Précipitation Vent Pression Humidité
00:00 +11°C° 0 mm 0 m/s 708 mmHg 66%
01:00 +11°C° 0 mm 0 m/s 708 mmHg 66%
02:00 +10°C° 0 mm 0 m/s 708 mmHg 68%
03:00 +10°C° 0 mm 0 m/s 708 mmHg 70%
04:00 +10°C° 0 mm 0 m/s 708 mmHg 72%
05:00 +12°C° 0 mm 0 m/s 708 mmHg 67%
06:00 +14°C° 0 mm 0 m/s 709 mmHg 62%
07:00 +16°C° 0 mm 0 m/s 709 mmHg 58%
08:00 +20°C° 0 mm 1 m/s 709 mmHg 51%
09:00 +21°C° 0 mm 2 m/s 709 mmHg 44%
10:00 +24°C° 0 mm 2 m/s 709 mmHg 38%
11:00 +24°C° 0 mm 3 m/s 709 mmHg 37%
12:00 +25°C° 0 mm 3 m/s 709 mmHg 36%
13:00 +26°C° 0 mm 3 m/s 709 mmHg 35%
14:00 +25°C° 0 mm 3 m/s 709 mmHg 36%
15:00 +25°C° 0 mm 3 m/s 708 mmHg 37%
16:00 +25°C° 0 mm 3 m/s 708 mmHg 39%
17:00 +24°C° 0 mm 2 m/s 708 mmHg 46%
18:00 +23°C° 0 mm 1 m/s 708 mmHg 53%
19:00 +19°C° 0 mm 0 m/s 708 mmHg 60%
20:00 +18°C° 0 mm 0 m/s 708 mmHg 61%
21:00 +17°C° 0 mm 0 m/s 708 mmHg 62%
22:00 +18°C° 0 mm 1 m/s 708 mmHg 62%
23:00 +16°C° 0 mm 1 m/s 708 mmHg 64%
Voir plus

Nous avons besoin de votre consentement

Meteoprog et ses fournisseurs de services peuvent stocker et accéder à des données personnelles telles que des cookies, des identifiants d'appareils ou d'autres technologies similaires sur votre appareil et traiter ces données pour personnaliser le contenu et les publicités, ainsi que pour fournir des fonctionnalités de médias sociaux et analyser le trafic.

  • Stocker et/ou accéder à des informations sur votre appareil

    Des cookies, des identifiants d'appareils ou d'autres informations peuvent être stockés ou accessibles sur votre appareil aux fins indiquées ci-dessus.

  • Annonces et contenus personnalisés, mesure des annonces et des contenus, connaissance de l'audience et développement de produits

    Les annonces et le contenu peuvent être personnalisés en fonction d'un profil. D'autres données peuvent être ajoutées pour mieux personnaliser les annonces et le contenu. Les performances des publicités et du contenu peuvent être mesurées. Il est possible d'obtenir des informations sur le public qui a vu les publicités et le contenu. Ces données peuvent être utilisées pour développer ou améliorer l'expérience de l'utilisateur, les systèmes et les logiciels.

En cliquant sur "J'accepte", vous autorisez l'utilisation de cookies, des identifiants d'appareils, des balises web ou d'autres technologies similaires. Vos paramètres peuvent être modifiés dans le navigateur de votre appareil.

Dans certains cas, des intérêts légitimes peuvent être invoqués plutôt qu'un consentement. Vous pouvez en savoir plus à ce sujet dans notre Politique de confidentialité et de cookies.